Eastsound, WA

11:57 PM PDT on August 22, 2017 (GMT -0700)
Orcas Island

Weather History for KORS - December, 2013

Change the Weather History Date:

Saturday, December 7, 2013

  Actual Average (KFHR) Record (KFHR)
Temperature  
Mean Temperature 24 °F -  
Max Temperature 28 °F 45 °F 54 °F (2010)
Min Temperature 19 °F 36 °F 15 °F (2013)
Degree Days  
Heating Degree Days 42    
Moisture  
Dew Point 3 °F    
Average Humidity 42    
Maximum Humidity 63    
Minimum Humidity 29    
Precipitation  
Precipitation 0.00 in - - ()
Sea Level Pressure  
Sea Level Pressure 30.38 in    
Wind  
Wind Speed 9 mph (NE)    
Max Wind Speed 17 mph    
Max Gust Speed 30 mph    
Visibility 10 miles    
Events      
Averages and records for this station are not official NWS values.
T = Trace of Precipitation, MM = Missing Value Source: NWS Daily Summary

Daily Weather History Graph

Daily Weather History Graph

Search for Another Location

Airport or City:

Trip Planner

Search our weather history database for the weather conditions in past years. The results will help you decide how hot, cold, wet, or windy it might be!

Date:

Astronomy

Dec. 07, 2013 Rise Set
Actual Time 7:50 AM PST 4:15 PM PST
Civil Twilight 7:13 AM PST 4:52 PM PST
Nautical Twilight 6:34 AM PST 5:32 PM PST
Astronomical Twilight 5:55 AM PST 6:10 PM PST
Moon 11:20 AM PST (12/7) 10:24 PM PST (12/7)
Length of Visible Light 9h 38m
Length of Day
8h 25m
Waxing Crescent, 30% of the Moon is Illuminated
Dec 7
Waxing Crescent
Dec 9
First Quarter
Dec 17
Full
Dec 25
Last Quarter
Jan 1
New

Hourly Weather History & Observations

Time (PST) Temp. Windchill Dew Point Humidity Pressure Visibility Wind Dir Wind Speed Gust Speed Precip Events Conditions
12:15 AM 23.0 °F 13.9 °F -0.4 °F 36% 30.34 in 10.0 mi NE 8.1 mph 24.2 mph N/A   Clear
12:35 AM 23.0 °F 12.4 °F -0.4 °F 36% 30.33 in 10.0 mi East 10.4 mph 25.3 mph N/A   Clear
12:55 AM 23.0 °F 11.1 °F 1.4 °F 39% 30.33 in 10.0 mi NE 12.7 mph 23.0 mph N/A   Clear
1:15 AM 23.0 °F 10.1 °F 1.4 °F 39% 30.32 in 10.0 mi NE 15.0 mph 26.5 mph N/A   Clear
1:35 AM 23.0 °F 12.4 °F 1.4 °F 39% 30.34 in 10.0 mi ENE 10.4 mph 21.9 mph N/A   Clear
1:55 AM 23.0 °F 12.4 °F 1.4 °F 39% 30.34 in 10.0 mi NE 10.4 mph 24.2 mph N/A   Clear
2:15 AM 23.0 °F 10.6 °F 1.4 °F 39% 30.34 in 10.0 mi NE 13.8 mph 23.0 mph N/A   Clear
2:35 AM 23.0 °F 13.1 °F 1.4 °F 39% 30.35 in 10.0 mi NE 9.2 mph 20.7 mph N/A   Clear
2:55 AM 23.0 °F 11.1 °F 1.4 °F 39% 30.35 in 10.0 mi ENE 12.7 mph 20.7 mph N/A   Clear
3:15 AM 21.2 °F 9.5 °F -0.4 °F 39% 30.36 in 10.0 mi NE 11.5 mph 20.7 mph N/A   Clear
3:35 AM 23.0 °F 13.1 °F 1.4 °F 39% 30.36 in 10.0 mi NE 9.2 mph 19.6 mph N/A   Clear
3:55 AM 23.0 °F 10.6 °F -0.4 °F 36% 30.36 in 10.0 mi NE 13.8 mph 20.7 mph N/A   Clear
4:15 AM 23.0 °F 13.1 °F -0.4 °F 36% 30.36 in 10.0 mi NE 9.2 mph 19.6 mph N/A   Clear
4:35 AM 23.0 °F 12.4 °F -0.4 °F 36% 30.36 in 10.0 mi NE 10.4 mph 23.0 mph N/A   Clear
4:55 AM 23.0 °F 11.7 °F 1.4 °F 39% 30.36 in 10.0 mi NE 11.5 mph 24.2 mph N/A   Clear
5:15 AM 23.0 °F 10.6 °F -0.4 °F 36% 30.36 in 10.0 mi NE 13.8 mph 24.2 mph N/A   Clear
5:35 AM 21.2 °F 10.1 °F -0.4 °F 39% 30.35 in 10.0 mi NE 10.4 mph 21.9 mph N/A   Clear
5:55 AM 21.2 °F 9.5 °F -0.4 °F 39% 30.36 in 10.0 mi NE 11.5 mph 23.0 mph N/A   Clear
6:15 AM 21.2 °F 10.9 °F -0.4 °F 39% 30.36 in 10.0 mi NNE 9.2 mph 18.4 mph N/A   Clear
6:35 AM 23.0 °F 10.6 °F 1.4 °F 39% 30.36 in 10.0 mi NNE 13.8 mph 28.8 mph N/A   Clear
6:55 AM 23.0 °F 9.2 °F 1.4 °F 39% 30.36 in 10.0 mi NE 17.3 mph 25.3 mph N/A   Clear
7:15 AM 23.0 °F 10.6 °F 1.4 °F 39% 30.36 in 10.0 mi NE 13.8 mph 27.6 mph N/A   Clear
7:35 AM 23.0 °F 10.6 °F 1.4 °F 39% 30.36 in 10.0 mi NNE 13.8 mph 24.2 mph N/A   Clear
7:55 AM 23.0 °F 10.6 °F 1.4 °F 39% 30.37 in 10.0 mi NE 13.8 mph 26.5 mph N/A   Clear
8:15 AM 23.0 °F 9.6 °F -0.4 °F 36% 30.37 in 10.0 mi NE 16.1 mph 26.5 mph N/A   Clear
8:35 AM 23.0 °F 10.6 °F 1.4 °F 39% 30.38 in 10.0 mi NE 13.8 mph 24.2 mph N/A   Clear
8:55 AM 23.0 °F 11.7 °F 1.4 °F 39% 30.39 in 10.0 mi ENE 11.5 mph 24.2 mph N/A   Clear
9:15 AM 23.0 °F 11.7 °F 1.4 °F 39% 30.40 in 10.0 mi ENE 11.5 mph 26.5 mph N/A   Clear
9:35 AM 23.0 °F 11.1 °F -0.4 °F 36% 30.40 in 10.0 mi ENE 12.7 mph 29.9 mph N/A   Clear
9:55 AM 23.0 °F 13.9 °F 1.4 °F 39% 30.39 in 10.0 mi ENE 8.1 mph 24.2 mph N/A   Clear
10:15 AM 24.8 °F 14.0 °F 3.2 °F 40% 30.40 in 10.0 mi ENE 11.5 mph 21.9 mph N/A   Clear
10:35 AM 24.8 °F 16.1 °F 1.4 °F 36% 30.40 in 10.0 mi ENE 8.1 mph 20.7 mph N/A   Clear
10:55 AM 24.8 °F 13.4 °F 1.4 °F 36% 30.40 in 10.0 mi ENE 12.7 mph 18.4 mph N/A   Clear
11:20 AM 24.8 °F 15.3 °F 3.2 °F 40% 30.39 in 10.0 mi ESE 9.2 mph 18.4 mph N/A   Clear
11:35 AM 24.8 °F 15.3 °F 1.4 °F 36% 30.39 in 10.0 mi ENE 9.2 mph 17.3 mph N/A   Clear
11:55 AM 24.8 °F 16.1 °F 1.4 °F 36% 30.39 in 10.0 mi ENE 8.1 mph 18.4 mph N/A   Clear
12:15 PM 26.6 °F 20.0 °F 1.4 °F 34% 30.39 in 10.0 mi NE 5.8 mph 18.4 mph N/A   Clear
12:35 PM 26.6 °F 18.2 °F -0.4 °F 31% 30.38 in 10.0 mi ENE 8.1 mph 18.4 mph N/A   Clear
12:55 PM 26.6 °F 18.2 °F -0.4 °F 31% 30.37 in 10.0 mi NNE 8.1 mph 18.4 mph N/A   Clear
1:15 PM 26.6 °F 18.2 °F -0.4 °F 31% 30.37 in 10.0 mi NE 8.1 mph 17.3 mph N/A   Clear
1:35 PM 26.6 °F 17.5 °F -0.4 °F 31% 30.38 in 10.0 mi NE 9.2 mph - N/A   Clear
1:55 PM 26.6 °F 19.1 °F -0.4 °F 31% 30.38 in 10.0 mi NE 6.9 mph - N/A   Clear
2:15 PM 26.6 °F 20.0 °F -0.4 °F 31% 30.38 in 10.0 mi NNE 5.8 mph - N/A   Clear
2:35 PM 28.4 °F 23.3 °F -0.4 °F 29% 30.39 in 10.0 mi ENE 4.6 mph - N/A   Clear
2:55 PM 28.4 °F 23.3 °F 1.4 °F 31% 30.39 in 10.0 mi NE 4.6 mph - N/A   Clear
3:15 PM 28.4 °F 23.3 °F 1.4 °F 31% 30.39 in 10.0 mi ENE 4.6 mph - N/A   Clear
3:35 PM 28.4 °F - 1.4 °F 31% 30.40 in 10.0 mi Calm Calm - N/A   Clear
3:55 PM 26.6 °F - 3.2 °F 37% 30.39 in 10.0 mi Calm Calm - N/A   Clear
4:15 PM 26.6 °F - 5.0 °F 40% 30.39 in 10.0 mi Calm Calm - N/A   Clear
4:35 PM 26.6 °F - 5.0 °F 40% 30.40 in 10.0 mi Calm Calm - N/A   Clear
4:55 PM 23.0 °F - 6.8 °F 50% 30.40 in 10.0 mi North - - N/A   Clear
5:15 PM 23.0 °F - 6.8 °F 50% 30.39 in 10.0 mi Calm Calm - N/A   Clear
5:35 PM 21.2 °F - 6.8 °F 54% 30.40 in 10.0 mi Calm Calm - N/A   Clear
5:55 PM 24.8 °F - 6.8 °F 46% 30.40 in 10.0 mi North - - N/A   Clear
6:15 PM 23.0 °F 18.4 °F 6.8 °F 50% 30.40 in 10.0 mi ESE 3.5 mph - N/A   Clear
6:35 PM 26.6 °F - 6.8 °F 43% 30.40 in 10.0 mi Calm Calm - N/A   Clear
6:55 PM 26.6 °F - 6.8 °F 43% 30.40 in 10.0 mi Calm Calm - N/A   Clear
7:15 PM 23.0 °F - 6.8 °F 50% 30.40 in 10.0 mi Calm Calm - N/A   Clear
7:35 PM 23.0 °F - 8.6 °F 54% 30.40 in 10.0 mi Calm Calm - N/A   Clear
7:55 PM 19.4 °F - 8.6 °F 63% 30.40 in 10.0 mi Calm Calm - N/A   Clear
8:15 PM 21.2 °F - 6.8 °F 54% 30.39 in 10.0 mi Calm Calm - N/A   Clear
8:35 PM 23.0 °F - 6.8 °F 50% 30.40 in 10.0 mi Calm Calm - N/A   Clear
8:55 PM 23.0 °F 18.4 °F 6.8 °F 50% 30.40 in 10.0 mi SE 3.5 mph - N/A   Clear
9:15 PM 23.0 °F 18.4 °F 6.8 °F 50% 30.39 in 10.0 mi East 3.5 mph - N/A   Clear
9:35 PM 23.0 °F - 6.8 °F 50% 30.40 in 10.0 mi Calm Calm - N/A   Clear
9:55 PM 19.4 °F - 6.8 °F 58% 30.39 in 10.0 mi Calm Calm - N/A   Clear
10:15 PM 19.4 °F - 6.8 °F 58% 30.40 in 9.0 mi Calm Calm - N/A   Clear
10:35 PM 19.4 °F - 8.6 °F 63% 30.41 in 10.0 mi Calm Calm - N/A   Clear
10:55 PM 19.4 °F - 8.6 °F 63% 30.41 in 10.0 mi Calm Calm - N/A   Clear
11:15 PM 19.4 °F - 8.6 °F 63% 30.41 in 10.0 mi Calm Calm - N/A   Clear
11:35 PM 19.4 °F 11.5 °F 8.6 °F 63% 30.41 in 10.0 mi South 5.8 mph - N/A   Clear
11:55 PM 19.4 °F - 8.6 °F 63% 30.40 in 10.0 mi Calm Calm - N/A   Clear